Regional Weather Roundup
Issued by NWS Charleston, SC

Current Version | Previous Version | Text Only | Print | Product List | Glossary Off
Versions: 1 2 3 4 5 6 7 8 9 10 11 12 13 14 15 16 17 18 19 20 21 22 23 24 25 26 27 28 29 30 31 32 33 34 35 36 37 38 39 40 41 42 43 44 45 46 47 48 49 50

000
ASUS42 KCHS 061812
RWRCHS

REGIONAL WEATHER ROUNDUP
NATIONAL WEATHER SERVICE CHARLESTON SC
200 PM EDT MON JUL 06 2015

NOTE: "FAIR" INDICATES FEW OR NO CLOUDS BELOW 12,000 FEET WITH NO
SIGNIFICANT WEATHER AND/OR OBSTRUCTIONS TO VISIBILITY.

NOT ALL STATIONS ARE QUALITY CONTROLLED BY THE NATIONAL
WEATHER SERVICE. USE DATA WITH CAUTION...ESPECIALLY
DEWPOINT OBSERVATIONS.

SCZ027-030-031-034>040-042>050-061900-
...SOUTHEAST SOUTH CAROLINA...

CITY           SKY/WX    TMP DP  RH WIND       PRES   REMARKS
N CHARLESTON   MOSUNNY   85  71  63 VRB6      30.14F HX  90
6HR MIN TEMP:  72; 6HR MAX TEMP:  85;

WATERFRONT PAR   N/A     84  73  69 SW6       30.12F HX  90
MOUNT PLEASANT FAIR      86  70  58 W6        30.14F HX  90
JOHNS ISLAND   MOCLDY    86  73  66 CALM      30.14F HX  93
PINOPOLIS      NOT AVBL
MONCKS CORNER  MOCLDY    84  72  65 SW8       30.13F
SUMMERVILLE    FAIR      86  73  66 SW3       30.15F HX  93
BEAUFORT MCAS  SUNNY     85  71  63 VRB3      30.15F HX  90
6HR MIN TEMP:  71; 6HR MAX TEMP:  85;

BEAUFORT ARPT  FAIR      82  72  69 SW3       30.15F
HILTON HEAD IS PTSUNNY   81  73  78 CALM      30.17F
WALTERBORO     NOT AVBL
ALLENDALE      FAIR      84  72  65 VRB3      30.13F

...SOUTHERN MIDLANDS AND PEE DEE...

CITY           SKY/WX    TMP DP  RH WIND       PRES   REMARKS
GEORGETOWN     NOT AVBL
KINGSTREE      NOT AVBL
ORANGEBURG     PTSUNNY   83  71  67 SW8       30.13F
6HR MIN TEMP:  72; 6HR MAX TEMP:  84;

BARNWELL       MOCLDY    84  73  70 SW8       30.14F HX  91
AIKEN          NOT AVBL
MANNING        MOCLDY    82  70  65 S6        30.13F
COLUMBIA       MOSUNNY   87  70  56 SW7       30.11F HX  92
6HR MIN TEMP:  74; 6HR MAX TEMP:  88;

SUMTER         MOSUNNY   84  72  66 VRB5      30.11F
6HR MIN TEMP:  73; 6HR MAX TEMP:  84;

FLORENCE       SUNNY     85  72  65 SW8       30.12F HX  91
6HR MIN TEMP:  73; 6HR MAX TEMP:  85;

MYRTLE BEACH   NOT AVBL
N MYRTLE BEACH SUNNY     83  74  74 S14       30.12F
6HR MIN TEMP:  78; 6HR MAX TEMP:  85;


$$

GAZ063-065-086>088-099>101-113>116-118-119-134>141-150-061900-
...SOUTHEAST GEORGIA...

CITY           SKY/WX    TMP DP  RH WIND       PRES   REMARKS
SAVANNAH ARPT  PTSUNNY   86  69  56 CALM      30.14F HX  90
6HR MIN TEMP:  71; 6HR MAX TEMP:  87;

HUNTER AAF     MOSUNNY   87  74  66 VRB3      30.12F HX  95
6HR MIN TEMP:  71; 6HR MAX TEMP:  87;

FORT STEWART   CLOUDY    87  69  56 NW9       30.13F HX  91
6HR MIN TEMP:  74; 6HR MAX TEMP:  87;

STATESBORO     NOT AVBL
SYLVANIA       MOCLDY    86  73  66 W5        30.15F HX  93
CLAXTON        FAIR      86  72  62 W9        30.14F HX  92

...CSRA...CENTRAL AND FAR SOUTHEAST GEORGIA...

CITY           SKY/WX    TMP DP  RH WIND       PRES   REMARKS
THOMSON        MOSUNNY   88  72  58 SW7       30.18F HX  95
AUGUSTA-BUSH   MOSUNNY   85  70  60 SW9       30.12F
6HR MIN TEMP:  73; 6HR MAX TEMP:  87;

AUGUSTA-DANIEL PTSUNNY   84  69  60 W7        30.14F
SWAINSBORO     MOCLDY    84  72  65 SW3       30.16F
VIDALIA        PTSUNNY   86  68  54 SW10      30.15F
EASTMAN        MOCLDY    83  69  61 CALM      30.18F
HAZLEHURST     MOCLDY    87  70  56 W3        30.15F HX  92
ALMA           PTSUNNY   86  70  58 SW7       30.15F HX  90
6HR MIN TEMP:  71; 6HR MAX TEMP:  86;

WAYCROSS       MOSUNNY   91  72  54 W10       30.15F HX  98
JESUP          FAIR      90  72  55 NW8       30.15F HX  96
BAXLEY         PTSUNNY   86  70  58 NW6       30.15F HX  90
BRUNSWICK      MOSUNNY   86  72  62 W5        30.16F HX  92
SAINT SIMONS   NOT AVBL

$$

SCZ027-028-034-036>038-045-046-048>050-GAZ119-141-061900-
...LAKE AND SUPPLEMENTAL COASTAL OBSERVATIONS...

STATION/POSITION TIME  TEMP    WIND        PRES    WAVE   SWELL
                       AIR SEA DIR/SP/G            HT/PER HT/PER/DIR
                 (UTC) (F)     (DEG/KT/KT) (MB)    (FT/S) (FT/S/D)
UPR LAKE MARION  NOT AVBL
WINYAH BAY       1645   84     210/  4     1020.0
LAKE MURRAY      1700   84     190/  3/  5 1019.6F
ACE BASIN NERRS  NOT AVBL
FORT PULASKI     1700   80 83  190/  3/  5 1021.9F
SAPELO ISLAND    1700   84     270/  4     1021.0F

$$

ANZ835-935-AMZ111-154-330-350-352-354-370-450-454-472-061900-
...C-MAN AND BUOY OBSERVATIONS...

STATION/POSITION TIME  TEMP    WIND        PRES    WAVE   SWELL
                       AIR SEA DIR/SP/G            HT/PER HT/PER/DIR
                 (UTC) (F)     (DEG/KT/KT) (MB)    (FT/S) (FT/S/D)
BUOY 41004       1750   80 83  230/  8/ 12 1020.5F   3/ 9   3/ 9
BUOY 41008       1750   76 81  180/  4/  4 1021.8F   2/ 8   2/120/ 8
FOLLY BEACH CMAN 1700   79     220/ 10/ 12 1021.2F
CAPERS NEARSHORE 1708   80     220/  8/ 10 1021.1F
FRIPP NEARSHORE  1700   84      CALM  /  4 1021.0F


STATION/POSITION TIME  TEMP    WIND        PRES    WAVE   SWELL
                       AIR SEA DIR/SP/G            HT/PER HT/PER/DIR
                 (UTC) (F)     (DEG/KT/KT) (MB)    (FT/S) (FT/S/D)
5E ST. MARYS GA  1721      79                N/A     2/ 9
FRYING PAN BUOY  1750   81 80  220/  6/  8 1021.1F   3/ 5   3/190/ 5
BUOY 41025       1750   80 82  200/ 16/ 17 1021.1F   3/ 9   2/130/ 9
CAPE LOOKOUT NC  1700   80     180/  9/ 10 1021.2F
BUOY 41002       1750   81 80  180/  8/ 10 1023.0F   4/ 8   3/140/ 8
BUOY 41010       1720   83 84  160/  8/ 10 1023.1R
ST AUGUSTINE FL  1800   76 72  100/  7/  7 1022.8F


$$


USA.gov is the U.S. government's official web portal to all federal, state and local government web resources and services.